Simultaneous Nadir Overpasses (SNOs) Predictions

Prediction of SNOs between NOAA-20 and AQUA Satellite Orbit:

Table of predicted SNOs for the next 14.0 days since TLE Epoch: 1/24/2020
Index Date (NOAA-20) Time (NOAA-20) Lat,Lon (NOAA-20) SZA (NOAA-20 ) Date (AQUA) Time (AQUA) Lat,Lon (AQUA) SZA (AQUA ) Distance(km) Time Diff (sec)
1 01/26/2020 22:13:14 75.82, 85.20 116.28 01/26/2020 22:13:24 75.82, 85.19 116.28 0.48 10
2 01/26/2020 23:03:40 -76.73,-104.24 64.83 01/26/2020 23:02:33 -76.73,-104.22 64.77 0.41 67
3 01/29/2020 13:39:40 -75.22, 31.77 63.66 01/29/2020 13:40:41 -75.21, 31.68 63.69 2.74 61
4 01/29/2020 14:30:06 76.05,-158.27 115.36 01/29/2020 14:29:49 76.05,-158.22 115.36 1.19 17
5 02/01/2020 05:56:31 -75.50, 148.39 64.68 02/01/2020 05:57:05 -75.49, 148.36 64.70 0.86 34
6 02/01/2020 06:46:57 76.31, -41.55 114.34 02/01/2020 06:46:13 76.32, -41.47 114.35 2.48 44
7 02/03/2020 22:13:21 -75.77, -94.97 65.74 02/03/2020 22:13:28 -75.77, -94.95 65.75 0.62 7
8 02/03/2020 23:03:39 76.93, 76.58 112.83 02/03/2020 23:02:29 76.92, 76.49 112.92 2.59 70
9 02/06/2020 13:39:45 75.14,-148.46 114.24 02/06/2020 13:40:42 75.14,-148.49 114.19 1.08 57




NCC Satellite Simultaneous Nadir Overpasses (SNOs) Prediction Service
